London-Corbin, KY

6:53 AM EDT on May 29, 2017 (GMT -0400)
London-Corbin / McKee

Weather History for KLOZ - May, 2013

Change the Weather History Date:

Tuesday, May 14, 2013

  Actual Average Record
Temperature  
Mean Temperature 60 °F 64 °F  
Max Temperature 81 °F 76 °F 88 °F (1998)
Min Temperature 38 °F 53 °F 33 °F (1996)
Degree Days  
Heating Degree Days 5 3  
Month to date heating degree days 82 58  
Since 1 July heating degree days 4511 4159  
Cooling Degree Days 0 3  
Month to date cooling degree days 1 24  
Year to date cooling degree days 21 50  
Growing Degree Days 8 (Base 50)    
Moisture  
Dew Point 45 °F    
Average Humidity 64    
Maximum Humidity 92    
Minimum Humidity 36    
Precipitation  
Precipitation 0.00 in 0.18 in 1.07 in (1968)
Month to date precipitation 3.12 2.32  
Year to date precipitation 21.59  
Sea Level Pressure  
Sea Level Pressure 30.10 in    
Wind  
Wind Speed 6 mph (SSW)    
Max Wind Speed 17 mph    
Max Gust Speed 24 mph    
Visibility 10 miles    
Events      
T = Trace of Precipitation, MM = Missing Value Source: NWS Daily Summary

Daily Weather History Graph

Daily Weather History Graph

Search for Another Location

Airport or City:

Trip Planner

Search our weather history database for the weather conditions in past years. The results will help you decide how hot, cold, wet, or windy it might be!

Date:

Astronomy

May. 14, 2013 Rise Set
Actual Time 6:28 AM EDT 8:37 PM EDT
Civil Twilight 5:59 AM EDT 9:06 PM EDT
Nautical Twilight 5:24 AM EDT 9:41 PM EDT
Astronomical Twilight 4:45 AM EDT 10:20 PM EDT
Moon 10:07 AM EDT (5/14) No Moon Set
Length of Visible Light 15h 06m
Length of Day
14h 08m
Waxing Crescent, 19% of the Moon is Illuminated
May 14
Waxing Crescent
May 18
First Quarter
May 25
Full
May 31
Last Quarter
Jun 8
New

Hourly Weather History & Observations

Time (EDT) Temp. Dew Point Humidity Pressure Visibility Wind Dir Wind Speed Gust Speed Precip Events Conditions
12:53 AM 43.0 °F 39.0 °F 86% 30.19 in 10.0 mi Calm Calm - N/A   Clear
1:53 AM 41.0 °F 37.9 °F 89% 30.19 in 10.0 mi Calm Calm - N/A   Clear
2:53 AM 39.9 °F 37.9 °F 93% 30.18 in 10.0 mi Calm Calm - N/A   Clear
3:53 AM 39.9 °F 37.0 °F 89% 30.18 in 10.0 mi Calm Calm - N/A   Clear
4:53 AM 39.9 °F 37.0 °F 89% 30.18 in 10.0 mi Calm Calm - N/A   Clear
5:53 AM 37.9 °F 36.0 °F 93% 30.19 in 10.0 mi Calm Calm - N/A   Clear
6:53 AM 37.9 °F 36.0 °F 93% 30.19 in 10.0 mi Calm Calm - N/A   Partly Cloudy
7:53 AM 43.0 °F 37.9 °F 82% 30.20 in 10.0 mi Calm Calm - N/A   Clear
8:53 AM 48.0 °F 41.0 °F 77% 30.19 in 10.0 mi Calm Calm - N/A   Scattered Clouds
9:53 AM 54.0 °F 42.1 °F 64% 30.19 in 10.0 mi SSE 4.6 mph - N/A   Scattered Clouds
10:53 AM 59.0 °F 39.9 °F 49% 30.17 in 10.0 mi Variable 5.8 mph - N/A   Scattered Clouds
11:53 AM 66.0 °F 43.0 °F 43% 30.15 in - SSW 9.2 mph 16.1 mph N/A   Scattered Clouds
12:53 PM 70.0 °F 46.0 °F 42% 30.11 in 10.0 mi South 11.5 mph - N/A   Clear
1:53 PM 73.9 °F 46.9 °F 38% 30.08 in 10.0 mi South 12.7 mph 19.6 mph N/A   Clear
2:53 PM 75.9 °F 48.0 °F 37% 30.05 in 10.0 mi SW 16.1 mph 24.2 mph N/A   Clear
3:53 PM 79.0 °F 50.0 °F 36% 30.01 in 10.0 mi SSW 13.8 mph 23.0 mph N/A   Clear
4:53 PM 80.1 °F 51.1 °F 36% 29.98 in 10.0 mi SSW 6.9 mph - N/A   Clear
5:53 PM 79.0 °F 52.0 °F 39% 29.99 in 10.0 mi SSW 9.2 mph - N/A   Mostly Cloudy
6:53 PM 79.0 °F 52.0 °F 39% 29.97 in 10.0 mi SW 11.5 mph - N/A   Partly Cloudy
7:53 PM 77.0 °F 52.0 °F 42% 29.96 in 10.0 mi SSW 9.2 mph - N/A   Clear
8:53 PM 73.0 °F 53.1 °F 49% 29.96 in 10.0 mi SSW 8.1 mph - N/A   Clear
9:53 PM 70.0 °F 53.1 °F 55% 29.98 in 10.0 mi SSW 4.6 mph - N/A   Clear
10:53 PM 68.0 °F 53.1 °F 59% 30.00 in 10.0 mi South 4.6 mph - N/A   Clear
11:53 PM 66.9 °F 54.0 °F 63% 30.00 in 10.0 mi South 5.8 mph - N/A   Clear